Regional Weather Roundup
Issued by NWS Charleston, SC

Current Version | Previous Version | Text Only | Print | Product List | Glossary Off
Versions: 1 2 3 4 5 6 7 8 9 10 11 12 13 14 15 16 17 18 19 20 21 22 23 24 25 26 27 28 29 30 31 32 33 34 35 36 37 38 39 40 41 42 43 44 45 46 47 48 49 50

000
ASUS42 KCHS 210124
RWRCHS

REGIONAL WEATHER ROUNDUP
NATIONAL WEATHER SERVICE CHARLESTON SC
900 PM EDT WED SEP 20 2017

NOTE: "FAIR" INDICATES FEW OR NO CLOUDS BELOW 12,000 FEET WITH NO
SIGNIFICANT WEATHER AND/OR OBSTRUCTIONS TO VISIBILITY.

NOT ALL STATIONS ARE QUALITY CONTROLLED. USE DATA WITH CAUTION...
ESPECIALLY DEWPOINT OBSERVATIONS.

SCZ027-030-031-034>040-042>050-210200-
...SOUTHEAST SOUTH CAROLINA...

CITY           SKY/WX    TMP DP  RH WIND       PRES   REMARKS
N CHARLESTON   CLEAR     77  72  84 S8        30.00R
WATERFRONT PRK   N/A     80  74  82 SW5       29.83S
JOHNS ISLAND   FAIR      79  75  89 S7        30.00R
PINOPOLIS        N/A     81  73  78 VRB2      29.92R
MONCKS CORNER  FAIR      77  72  83 S5        29.99S
SUMMERVILLE    FAIR      79  72  78 CALM      30.00R
BEAUFORT MCAS  CLEAR     80  75  84 S5        29.99R
BEAUFORT ARPT  FAIR      77  72  83 S6        29.99R
HILTON HEAD IS PTCLDY    81  73  78 S6        30.00S
WALTERBORO     CLEAR     77  73  88 CALM      30.00R
ALLENDALE      NOT AVBL

...SOUTHERN MIDLANDS AND PEE DEE...

CITY           SKY/WX    TMP DP  RH WIND       PRES   REMARKS
GEORGETOWN     FAIR      73  73 100 SW3       30.01R
KINGSTREE      FAIR      73  72  94 CALM      29.99R
ORANGEBURG     CLEAR     78  70  76 CALM      29.99R
BARNWELL       FAIR      79  75  89 CALM      29.98S
AIKEN          FAIR      73  68  83 CALM      30.03S
MANNING        FAIR      73  72  94 CALM      29.99R
COLUMBIA       CLEAR     80  68  66 CALM      29.98R
SUMTER         CLEAR     76  71  82 CALM      29.97R
FLORENCE       CLEAR     74  70  87 S3        29.99R
MYRTLE BEACH   CLEAR     79  74  84 S8        30.00R
N MYRTLE BEACH CLEAR     80  75  84 SW9       29.99R

$$

GAZ063-065-086>088-099>101-113>116-118-119-134>141-150-210200-
...SOUTHEAST GEORGIA...

CITY           SKY/WX    TMP DP  RH WIND       PRES   REMARKS
SAVANNAH ARPT  PTCLDY    75  69  81 S5        30.00R
HUNTER AAF     PTCLDY    74  70  89 CALM      29.98R
FORT STEWART   CLOUDY    75  68  77 CALM      29.98R
STATESBORO     CLEAR     79  71  74 SE5       29.99R
SYLVANIA       CLEAR     78  76  94 CALM      30.00R
CLAXTON        FAIR      80  74  83 CALM      30.00R

...CSRA...CENTRAL AND FAR SOUTHEAST GEORGIA...

CITY           SKY/WX    TMP DP  RH WIND       PRES   REMARKS
THOMSON        CLEAR     74  72  91 CALM      30.04S
AUGUSTA-BUSH   CLEAR     76  73  91 CALM      29.98R
AUGUSTA-DANIEL CLEAR     84  68  58 CALM      30.00R
SWAINSBORO     FAIR      77  73  88 CALM      30.01R
VIDALIA        PTCLDY    77  73  88 CALM      30.00R
EASTMAN        FAIR      77  69  75 CALM      30.02S
HAZLEHURST     FAIR      78  73  86 CALM      29.99S
ALMA           PTCLDY    74  70  87 SW3       30.00R
WAYCROSS       PTCLDY    77  71  81 CALM      30.00R
JESUP          NOT AVBL
BAXLEY         FAIR      75  75 100 CALM      29.99S
BRUNSWICK      CLOUDY    81  70  69 SE6       30.00R
SAINT SIMONS   CLOUDY    82  73  74 SE7       29.99R

$$

SCZ027-028-034-036>038-045-046-048>050-GAZ119-141-210200-
...LAKE AND SUPPLEMENTAL COASTAL OBSERVATIONS...

STATION/POSITION TIME  TEMP    WIND        PRES    WAVE   SWELL
                       AIR SEA DIR/SP/G            HT/PER HT/PER/DIR
                 (UTC) (F)     (DEG/KT/KT) (MB)    (FT/S) (FT/S/D)
WINYAH BAY       NOT AVBL
LAKE MURRAY      NOT AVBL
ACE BASIN NERRS  NOT AVBL
FORT PULASKI     0042   78 80  180/  1/  2 1016.0R
SAPELO ISLAND    0000   81        CALM     1015.0

$$

ANZ835-935-AMZ111-154-330-350-352-354-370-450-454-472-210200-
...C-MAN AND BUOY OBSERVATIONS...

STATION/POSITION TIME  TEMP    WIND        PRES    WAVE   SWELL
                       AIR SEA DIR/SP/G            HT/PER HT/PER/DIR
                 (UTC) (F)     (DEG/KT/KT) (MB)    (FT/S) (FT/S/D)
BUOY 41004       0050   81 82  190/  8/ 10 1015.4R   3/11   3/ 80/11
BUOY 41008       0050   81 81  160/ 10/ 12 1015.4R   2/13   2/ 70/13
FOLLY BEACH CMAN 0000   81     190/ 11/ 12 1016.2R
CAPERS NEARSHORE 0008   78 81  210/ 10/ 14 1015.2R
FRIPP NEARSHORE  0008   80     180/ 10/ 14 1020.9R


STATION/POSITION TIME  TEMP    WIND        PRES    WAVE   SWELL
                       AIR SEA DIR/SP/G            HT/PER HT/PER/DIR
                 (UTC) (F)     (DEG/KT/KT) (MB)    (FT/S) (FT/S/D)
5E ST. MARYS GA  0030      83                N/A     3/13   2/100/13
FRYING PAN BUOY  0050   81 82  210/ 10/ 12 1015.4R   2/11   2/ 80/11
BUOY 41025       0050   76 76  220/  4/  6 1014.6R   5/10   5/ 50/10
CAPE LOOKOUT NC  0000   78     210/  8/ 10 1014.4R
BUOY 41002       0050   80 80   CALM  /  2 1016.2R   6/11   7/11
BUOY 41010       0050      85   70/  6/ 10 1015.9R   7/14   7/14
ST AUGUSTINE FL  0100   81 84  120/ 10/ 11 1016.2R


$$




USA.gov is the U.S. government's official web portal to all federal, state and local government web resources and services.